STARLINK-3316 (50833 NORAD) Tracking and Keplerian Element Data

This shows tracking and keplerian element data for the satellite.

Feedback or suggestion? Click here.




ElementValue
Catalog50833
NameSTARLINK-3316
Epoch Orbit382
Epoch Day22.91667824
Epoch Year2022
RAAN119.7633
Inclination53.2175
Eccentricity0.0001057
Argument of Perigee71.0694
Mean Anonmoly242.6095
Mean Motion15.75254188
Decay Rate-0.00821052
L11 50833U 22001AG 22022.91667824 -.00821052 00000+0 -58900-2 0 9998
L22 50833 53.2175 119.7633 0001057 71.0694 242.6095 15.75254188 3821

Live tracking and technical data element details for STARLINK-3316 (NORAD 50833). STARLINK-3316 can be tracked NOW for your location showing map with azimuth and elevation plus other details from your city location.

Track the satellite on the map from your city or location and see movement details for azimuth, elevation, latitude, longitude, range, height, and movement on the map or in text.







IsCatalogInMostPopularTable: catalog: 50833, numindb: 4
Update: records affected: 1



GetName: 50833 STARLINK-3316

Hit Count: updated at: Mon, 24 Jan 2022 00:10:01 GMT